When you browse on this site, cookies collect data to enhance your experience and personalize the content and advertising you see.
Visit our Privacy Policy to learn more. By continuing to use the site, you agree to this use of cookies and data.
  • en France
  • Liste des pays
  • À 7 jours
  • Température de l'eau
  • Carte météo
  • Widgets météo
  • user-avatar
    Se connecter

    Météo par heure à Bassé Santa Su

    Ce jour, 29 Mai, Vendredi

    Heure Température Précipitation Vent Pression Humidité
    00:00 +33°C° 0 mm 4 m/s 756 mmHg 41%
    01:00 +30°C° 0 mm 3 m/s 756 mmHg 44%
    02:00 +29°C° 0 mm 2 m/s 756 mmHg 46%
    03:00 +28°C° 0 mm 2 m/s 756 mmHg 49%
    04:00 +28°C° 0 mm 1 m/s 756 mmHg 51%
    05:00 +27°C° 0 mm 1 m/s 756 mmHg 54%
    06:00 +29°C° 0 mm 1 m/s 757 mmHg 49%
    07:00 +30°C° 0 mm 2 m/s 757 mmHg 45%
    08:00 +32°C° 0 mm 2 m/s 757 mmHg 41%
    09:00 +36°C° 0 mm 2 m/s 757 mmHg 34%
    10:00 +39°C° 0 mm 2 m/s 756 mmHg 28%
    11:00 +42°C° 0 mm 2 m/s 755 mmHg 22%
    12:00 +44°C° 0 mm 1 m/s 754 mmHg 20%
    13:00 +46°C° 0 mm 1 m/s 754 mmHg 17%
    14:00 +48°C° 0 mm 1 m/s 753 mmHg 15%
    15:00 +44°C° 0 mm 0 m/s 752 mmHg 16%
    16:00 +43°C° 0 mm 0 m/s 752 mmHg 16%
    17:00 +42°C° 0 mm 0 m/s 752 mmHg 17%
    18:00 +43°C° 0 mm 1 m/s 752 mmHg 19%
    19:00 +41°C° 0 mm 2 m/s 753 mmHg 21%
    20:00 +39°C° 0 mm 2 m/s 754 mmHg 24%
    21:00 +38°C° 0 mm 3 m/s 754 mmHg 27%
    22:00 +36°C° 0 mm 4 m/s 755 mmHg 31%
    23:00 +34°C° 0 mm 4 m/s 756 mmHg 35%

    Demain, 30 Mai, Samedi

    Heure Température Précipitation Vent Pression Humidité
    00:00 +33°C° 0 mm 4 m/s 756 mmHg 38%
    01:00 +32°C° 0 mm 4 m/s 755 mmHg 41%
    02:00 +30°C° 0 mm 3 m/s 755 mmHg 43%
    03:00 +29°C° 0 mm 3 m/s 756 mmHg 48%
    04:00 +28°C° 0 mm 3 m/s 756 mmHg 53%
    05:00 +27°C° 0 mm 3 m/s 756 mmHg 58%
    06:00 +28°C° 0 mm 3 m/s 756 mmHg 55%
    07:00 +29°C° 0 mm 3 m/s 757 mmHg 52%
    08:00 +30°C° 0 mm 3 m/s 757 mmHg 49%
    09:00 +34°C° 0 mm 3 m/s 756 mmHg 39%
    10:00 +37°C° 0 mm 3 m/s 756 mmHg 29%
    11:00 +42°C° 0 mm 3 m/s 756 mmHg 19%
    12:00 +42°C° 0 mm 2 m/s 755 mmHg 17%
    13:00 +45°C° 0 mm 2 m/s 754 mmHg 14%
    14:00 +46°C° 0 mm 2 m/s 753 mmHg 12%
    15:00 +46°C° 0 mm 2 m/s 753 mmHg 12%
    16:00 +45°C° 0 mm 2 m/s 752 mmHg 12%
    17:00 +45°C° 0 mm 3 m/s 752 mmHg 12%
    18:00 +42°C° 0 mm 5 m/s 753 mmHg 22%
    19:00 +39°C° 0 mm 7 m/s 754 mmHg 32%
    20:00 +35°C° 0 mm 9 m/s 756 mmHg 42%
    21:00 +34°C° 0 mm 7 m/s 756 mmHg 49%
    22:00 +32°C° 0 mm 6 m/s 756 mmHg 56%
    23:00 +30°C° 0 mm 5 m/s 757 mmHg 64%

    Après-demain, 31 Mai, Dimanche

    Heure Température Précipitation Vent Pression Humidité
    00:00 +30°C° 0 mm 4 m/s 756 mmHg 66%
    01:00 +29°C° 0 mm 3 m/s 756 mmHg 68%
    02:00 +29°C° 0 mm 3 m/s 756 mmHg 70%
    03:00 +28°C° 0 mm 3 m/s 756 mmHg 69%
    04:00 +28°C° 0 mm 3 m/s 756 mmHg 69%
    05:00 +27°C° 0 mm 2 m/s 756 mmHg 69%
    06:00 +28°C° 0 mm 2 m/s 757 mmHg 65%
    07:00 +28°C° 0 mm 2 m/s 758 mmHg 62%
    08:00 +28°C° 0 mm 2 m/s 758 mmHg 58%
    09:00 +31°C° 0 mm 2 m/s 758 mmHg 50%
    10:00 +34°C° 0 mm 2 m/s 758 mmHg 41%
    11:00 +37°C° 0 mm 3 m/s 758 mmHg 32%
    12:00 +38°C° 0 mm 3 m/s 757 mmHg 28%
    13:00 +40°C° 0 mm 3 m/s 756 mmHg 25%
    14:00 +41°C° 0 mm 2 m/s 756 mmHg 21%
    15:00 +41°C° 0 mm 2 m/s 755 mmHg 21%
    16:00 +41°C° 0 mm 2 m/s 755 mmHg 20%
    17:00 +41°C° 0 mm 2 m/s 755 mmHg 20%
    18:00 +39°C° 0 mm 2 m/s 755 mmHg 22%
    19:00 +37°C° 0 mm 2 m/s 756 mmHg 24%
    20:00 +36°C° 0 mm 2 m/s 757 mmHg 25%
    21:00 +35°C° 0 mm 3 m/s 757 mmHg 29%
    22:00 +34°C° 0 mm 3 m/s 757 mmHg 33%
    23:00 +33°C° 0 mm 4 m/s 758 mmHg 37%

    1 Juin, Lundi

    Heure Température Précipitation Vent Pression Humidité
    00:00 +31°C° 0 mm 3 m/s 758 mmHg 40%
    01:00 +30°C° 0 mm 3 m/s 757 mmHg 43%
    02:00 +28°C° 0 mm 2 m/s 757 mmHg 46%
    03:00 +28°C° 0 mm 2 m/s 757 mmHg 49%
    04:00 +27°C° 0 mm 1 m/s 758 mmHg 52%
    05:00 +26°C° 0 mm 1 m/s 758 mmHg 54%
    06:00 +28°C° 0 mm 1 m/s 758 mmHg 48%
    07:00 +30°C° 0 mm 1 m/s 759 mmHg 42%
    08:00 +32°C° 0 mm 1 m/s 759 mmHg 35%
    09:00 +35°C° 0 mm 1 m/s 759 mmHg 29%
    10:00 +39°C° 0 mm 1 m/s 759 mmHg 23%
    11:00 +42°C° 0 mm 1 m/s 758 mmHg 17%
    12:00 +43°C° 0 mm 1 m/s 758 mmHg 16%
    13:00 +44°C° 0 mm 1 m/s 757 mmHg 14%
    14:00 +45°C° 0 mm 1 m/s 756 mmHg 13%
    15:00 +44°C° 0 mm 1 m/s 756 mmHg 14%
    16:00 +43°C° 0 mm 1 m/s 755 mmHg 14%
    17:00 +43°C° 0 mm 1 m/s 755 mmHg 15%
    18:00 +41°C° 0 mm 1 m/s 756 mmHg 17%
    19:00 +39°C° 0 mm 1 m/s 756 mmHg 18%
    20:00 +36°C° 0 mm 1 m/s 757 mmHg 20%
    21:00 +35°C° 0 mm 2 m/s 757 mmHg 25%
    22:00 +34°C° 0 mm 3 m/s 758 mmHg 30%
    23:00 +33°C° 0 mm 4 m/s 758 mmHg 35%

    2 Juin, Mardi

    Heure Température Précipitation Vent Pression Humidité
    00:00 +30°C° 0 mm 4 m/s 758 mmHg 39%
    01:00 +29°C° 0 mm 3 m/s 757 mmHg 43%
    02:00 +27°C° 0 mm 2 m/s 757 mmHg 47%
    03:00 +27°C° 0 mm 2 m/s 757 mmHg 50%
    04:00 +26°C° 0 mm 2 m/s 757 mmHg 52%
    05:00 +25°C° 0 mm 1 m/s 758 mmHg 55%
    06:00 +27°C° 0 mm 2 m/s 758 mmHg 46%
    07:00 +29°C° 0 mm 2 m/s 758 mmHg 38%
    08:00 +31°C° 0 mm 2 m/s 759 mmHg 30%
    09:00 +35°C° 0 mm 2 m/s 758 mmHg 25%
    10:00 +38°C° 0 mm 2 m/s 758 mmHg 19%
    11:00 +40°C° 0 mm 2 m/s 758 mmHg 14%
    12:00 +42°C° 0 mm 2 m/s 757 mmHg 13%
    13:00 +44°C° 0 mm 1 m/s 756 mmHg 11%
    14:00 +45°C° 0 mm 1 m/s 755 mmHg 10%
    15:00 +45°C° 0 mm 1 m/s 755 mmHg 10%
    16:00 +44°C° 0 mm 1 m/s 754 mmHg 11%
    17:00 +43°C° 0 mm 1 m/s 754 mmHg 11%
    18:00 +41°C° 0 mm 1 m/s 754 mmHg 12%
    19:00 +39°C° 0 mm 1 m/s 755 mmHg 14%
    20:00 +36°C° 0 mm 1 m/s 755 mmHg 15%
    21:00 +36°C° 0 mm 2 m/s 755 mmHg 19%
    22:00 +35°C° 0 mm 3 m/s 756 mmHg 24%
    23:00 +33°C° 0 mm 4 m/s 756 mmHg 28%

    3 Juin, Mercredi

    Heure Température Précipitation Vent Pression Humidité
    00:00 +31°C° 0 mm 3 m/s 756 mmHg 30%
    01:00 +30°C° 0 mm 3 m/s 755 mmHg 32%
    02:00 +29°C° 0 mm 2 m/s 755 mmHg 34%
    03:00 +28°C° 0 mm 2 m/s 755 mmHg 36%
    04:00 +27°C° 0 mm 1 m/s 756 mmHg 38%
    05:00 +26°C° 0 mm 1 m/s 756 mmHg 40%
    06:00 +28°C° 0 mm 1 m/s 756 mmHg 35%
    07:00 +30°C° 0 mm 1 m/s 757 mmHg 29%
    08:00 +33°C° 0 mm 1 m/s 757 mmHg 24%
    09:00 +37°C° 0 mm 2 m/s 757 mmHg 20%
    10:00 +40°C° 0 mm 2 m/s 756 mmHg 16%
    11:00 +44°C° 0 mm 3 m/s 756 mmHg 13%
    12:00 +45°C° 0 mm 3 m/s 755 mmHg 12%
    13:00 +47°C° 0 mm 3 m/s 754 mmHg 11%
    14:00 +48°C° 0 mm 3 m/s 753 mmHg 10%
    15:00 +48°C° 0 mm 3 m/s 752 mmHg 11%
    16:00 +48°C° 0 mm 3 m/s 752 mmHg 11%
    17:00 +47°C° 0 mm 2 m/s 752 mmHg 11%
    18:00 +45°C° 0 mm 2 m/s 752 mmHg 13%
    19:00 +41°C° 0 mm 2 m/s 753 mmHg 15%
    20:00 +39°C° 0 mm 1 m/s 753 mmHg 17%
    21:00 +37°C° 0 mm 2 m/s 754 mmHg 24%
    22:00 +35°C° 0 mm 3 m/s 755 mmHg 31%
    23:00 +33°C° 0 mm 4 m/s 755 mmHg 37%
    Voir plus